User: anonymous   Login
Location: Banska Bystrica
(0.0000°N, 19.1500°E)
Time: 04:14:05
(UTC+02:00)
Language:

CZ-2D R/B - Orbit

View from above orbital plane
View from above orbital plane
View from above satellite
View from above satellite

Ground track
Ground track

The orbit data is extracted from the following two-line orbital elements,

1 28738U 05024B   19109.54835998  .00000352  00000-0  24302-4 0  9995
2 28738  97.4209 140.2578 0011354 203.9063 156.1642 15.11770155757226
Epoch (UTC): 19 April 2019 13:09:38
Eccentricity: 0.0011354
inclination: 97.4209°
perigee height: 523 km
apogee height: 538 km
right ascension of ascending node: 140.2578°
argument of perigee: 203.9063°
revolutions per day: 15.11770155
mean anomaly at epoch: 156.1642°
orbit number at epoch: 75722

The dashed part of the orbit path shows where the satellite is in the earth's shadow,  

DLR